,,Stat6,,Stat2,,Stat8,,Stat9,,Stat10,,Wind1,,Wind1,
time,status,PA1M_AVG,status,PR1M_SUM,status,RH1M_AVG,status,SR1M_AVG,status,TA1M_AVG,status,W1dAve1m,status,W1sAve1m,
2004-05-22, 00:00:00,VALID,917.871,VALID,0,VALID,97.3401,VALID,0,VALID,21.2984,VALID,26,VALID,0.577762,
2004-05-22, 00:01:00,VALID,917.896,VALID,0,VALID,97.232,VALID,-0.0169808,VALID,21.3024,VALID,3,VALID,0.677426,
2004-05-22, 00:02:00,VALID,917.909,VALID,0,VALID,97.204,VALID,-0.0169808,VALID,21.2828,VALID,23,VALID,1.08273,
2004-05-22, 00:03:00,VALID,917.917,VALID,0,VALID,97.3477,VALID,0,VALID,21.2728,VALID,23,VALID,0.920987,
2004-05-22, 00:04:00,VALID,917.908,VALID,0,VALID,97.3413,VALID,-0.0509425,VALID,21.2895,VALID,14,VALID,1.21573,
2004-05-22, 00:05:00,VALID,917.906,VALID,0,VALID,97.2841,VALID,-0.0339617,VALID,21.2601,VALID,14,VALID,0.910065,
2004-05-22, 00:06:00,VALID,917.916,VALID,0,VALID,97.3655,VALID,-0.0509425,VALID,21.2601,VALID,25,VALID,1.09659,
2004-05-22, 00:07:00,VALID,917.921,VALID,0,VALID,97.3273,VALID,-0.0339617,VALID,21.2733,VALID,20,VALID,1.14139,
2004-05-22, 00:08:00,VALID,917.923,VALID,0,VALID,97.335,VALID,-0.0169808,VALID,21.2696,VALID,20,VALID,0.687881,
2004-05-22, 00:09:00,VALID,917.906,VALID,0,VALID,97.3261,VALID,-0.0509425,VALID,21.2897,VALID,22,VALID,0.490057,
2004-05-22, 00:10:00,VALID,917.893,VALID,0,VALID,97.2599,VALID,-0.0679233,VALID,21.3029,VALID,22,VALID,0.139223,
2004-05-22, 00:11:00,VALID,917.864,VALID,0,VALID,97.1086,VALID,0,VALID,21.3083,VALID,20,VALID,0.339258,
2004-05-22, 00:12:00,VALID,917.849,VALID,0,VALID,97.073,VALID,-0.0169808,VALID,21.2857,VALID,18,VALID,0.642401,
2004-05-22, 00:13:00,VALID,917.824,VALID,0,VALID,97.073,VALID,-0.0509425,VALID,21.2895,VALID,14,VALID,0.671148,
2004-05-22, 00:14:00,VALID,917.801,VALID,0,VALID,97.0819,VALID,-0.0339617,VALID,21.2693,VALID,17,VALID,0.74272,
2004-05-22, 00:15:00,VALID,917.799,VALID,0,VALID,97.1493,VALID,0,VALID,21.2661,VALID,16,VALID,0.641797,
2004-05-22, 00:16:00,VALID,917.796,VALID,0,VALID,97.1201,VALID,0,VALID,21.2534,VALID,21,VALID,1.12173,
2004-05-22, 00:17:00,VALID,917.776,VALID,0,VALID,97.0298,VALID,-0.0339617,VALID,21.2238,VALID,24,VALID,0.978981,
2004-05-22, 00:18:00,VALID,917.789,VALID,0,VALID,97.0946,VALID,0,VALID,21.2144,VALID,27,VALID,1.08836,
2004-05-22, 00:19:00,VALID,917.812,VALID,0,VALID,97.1099,VALID,0,VALID,21.2017,VALID,21,VALID,1.02397,
2004-05-22, 00:20:00,VALID,917.837,VALID,0,VALID,97.045,VALID,-0.0169808,VALID,21.1759,VALID,23,VALID,1.08957,
2004-05-22, 00:21:00,VALID,917.86,VALID,0,VALID,97.1264,VALID,-0.0509425,VALID,21.1635,VALID,23,VALID,0.873285,
2004-05-22, 00:22:00,VALID,917.869,VALID,0,VALID,97.129,VALID,-0.0509425,VALID,21.1404,VALID,14,VALID,0.710379,
2004-05-22, 00:23:00,VALID,917.889,VALID,0,VALID,97.1468,VALID,-0.0339617,VALID,21.1377,VALID,15,VALID,0.759909,
2004-05-22, 00:24:00,VALID,917.883,VALID,0,VALID,97.2574,VALID,-0.0169808,VALID,21.1213,VALID,16,VALID,0.803516,
2004-05-22, 00:25:00,VALID,917.876,VALID,0,VALID,97.3426,VALID,-0.0169808,VALID,21.1344,VALID,21,VALID,0.917783,
2004-05-22, 00:26:00,VALID,917.866,VALID,0,VALID,97.3426,VALID,-0.0509425,VALID,21.1307,VALID,24,VALID,0.476763,
2004-05-22, 00:27:00,VALID,917.841,VALID,0,VALID,97.2816,VALID,-0.0339617,VALID,21.118,VALID,24,VALID,0.442645,
2004-05-22, 00:28:00,VALID,917.806,VALID,0,VALID,97.2968,VALID,-0.0169808,VALID,21.1207,VALID,24,VALID,1.12407,
2004-05-22, 00:29:00,VALID,917.778,VALID,0,VALID,97.2727,VALID,-0.0169808,VALID,21.1145,VALID,14,VALID,1.04433,
2004-05-22, 00:30:00,VALID,917.764,VALID,0,VALID,97.2816,VALID,-0.0169808,VALID,21.1183,VALID,25,VALID,0.918648,
2004-05-22, 00:31:00,VALID,917.763,VALID,0,VALID,97.3006,VALID,-0.0339617,VALID,21.1218,VALID,29,VALID,0.913881,
2004-05-22, 00:32:00,VALID,917.743,VALID,0,VALID,97.3629,VALID,-0.0339617,VALID,21.1116,VALID,33,VALID,0.49891,
2004-05-22, 00:33:00,VALID,917.724,VALID,0,VALID,97.3286,VALID,-0.0509425,VALID,21.1277,VALID,33,VALID,0.328303,
2004-05-22, 00:34:00,VALID,917.688,VALID,0,VALID,97.2854,VALID,0.0169808,VALID,21.1237,VALID,33,VALID,0.0209604,
2004-05-22, 00:35:00,VALID,917.658,VALID,0,VALID,97.3248,VALID,0.0509425,VALID,21.1267,VALID,33,VALID,0,
2004-05-22, 00:36:00,VALID,917.626,VALID,0,VALID,97.3413,VALID,0.101885,VALID,21.1296,VALID,33,VALID,0,
2004-05-22, 00:37:00,VALID,917.599,VALID,0,VALID,97.349,VALID,0.101885,VALID,21.1291,VALID,33,VALID,0.0208939,
2004-05-22, 00:38:00,VALID,917.59,VALID,0,VALID,97.3337,VALID,0.0849042,VALID,21.1294,VALID,33,VALID,0.342035,
2004-05-22, 00:39:00,VALID,917.566,VALID,0,VALID,97.2854,VALID,0.0849042,VALID,21.1194,VALID,33,VALID,0.265988,
2004-05-22, 00:40:00,VALID,917.557,VALID,0,VALID,97.2243,VALID,0.101885,VALID,21.1033,VALID,21,VALID,1.11254,
2004-05-22, 00:41:00,VALID,917.535,VALID,0,VALID,97.3757,VALID,0.101885,VALID,21.0971,VALID,25,VALID,1.13086,
2004-05-22, 00:42:00,VALID,917.515,VALID,0,VALID,97.4507,VALID,0.101885,VALID,21.0965,VALID,18,VALID,0.782924,
2004-05-22, 00:43:00,VALID,917.522,VALID,0,VALID,97.4329,VALID,0.0849042,VALID,21.0933,VALID,11,VALID,0.602412,
2004-05-22, 00:44:00,VALID,917.527,VALID,0,VALID,97.3312,VALID,0.0679233,VALID,21.0941,VALID,15,VALID,1.1543,
2004-05-22, 00:45:00,VALID,917.564,VALID,0,VALID,97.4481,VALID,0.0679233,VALID,21.0876,VALID,16,VALID,0.807165,
2004-05-22, 00:46:00,VALID,917.58,VALID,0,VALID,97.4748,VALID,0.101885,VALID,21.0777,VALID,19,VALID,0.771984,
2004-05-22, 00:47:00,VALID,917.595,VALID,0,VALID,97.5461,VALID,0.101885,VALID,21.1008,VALID,14,VALID,0.883413,
2004-05-22, 00:48:00,VALID,917.596,VALID,0,VALID,97.5321,VALID,0.101885,VALID,21.1065,VALID,25,VALID,1.01776,
2004-05-22, 00:49:00,VALID,917.606,VALID,0,VALID,97.5194,VALID,-0.0169808,VALID,21.1175,VALID,14,VALID,0.721094,
2004-05-22, 00:50:00,VALID,917.621,VALID,0,VALID,97.5079,VALID,-0.101885,VALID,21.1277,VALID,18,VALID,0.856957,
2004-05-22, 00:51:00,VALID,917.612,VALID,0,VALID,97.3261,VALID,-0.101885,VALID,21.1089,VALID,4,VALID,0.432351,
2004-05-22, 00:52:00,VALID,917.631,VALID,0,VALID,97.3706,VALID,-0.0679233,VALID,21.1024,VALID,4,VALID,0.143714,
2004-05-22, 00:53:00,VALID,917.64,VALID,0,VALID,97.3566,VALID,-0.0509425,VALID,21.0825,VALID,4,VALID,0.359197,
2004-05-22, 00:54:00,VALID,917.639,VALID,0,VALID,97.354,VALID,-0.0509425,VALID,21.0763,VALID,325,VALID,0.364524,
2004-05-22, 00:55:00,VALID,917.632,VALID,0,VALID,97.3731,VALID,-0.0849042,VALID,21.0637,VALID,314,VALID,0.0184832,
2004-05-22, 00:56:00,VALID,917.587,VALID,0,VALID,97.4418,VALID,-0.0849042,VALID,21.0766,VALID,314,VALID,0,
2004-05-22, 00:57:00,VALID,917.554,VALID,0,VALID,97.457,VALID,-0.0849042,VALID,21.086,VALID,314,VALID,0.0291016,
2004-05-22, 00:58:00,VALID,917.541,VALID,0,VALID,97.4342,VALID,-0.0509425,VALID,21.089,VALID,317,VALID,0.334794,
2004-05-22, 00:59:00,VALID,917.518,VALID,0,VALID,97.4888,VALID,-0.101885,VALID,21.1121,VALID,344,VALID,0.488554,
2004-05-22, 01:00:00,VALID,917.516,VALID,0,VALID,97.4329,VALID,-0.0509425,VALID,21.1116,VALID,345,VALID,0.496094,
2004-05-22, 01:01:00,VALID,917.519,VALID,0,VALID,97.3757,VALID,-0.101885,VALID,21.1511,VALID,357,VALID,0.638393,
2004-05-22, 01:02:00,VALID,917.535,VALID,0,VALID,97.218,VALID,-0.0849042,VALID,21.1544,VALID,9,VALID,0.661204,
2004-05-22, 01:03:00,VALID,917.564,VALID,0,VALID,97.2167,VALID,-0.0679233,VALID,21.1506,VALID,10,VALID,0.568945,
2004-05-22, 01:04:00,VALID,917.578,VALID,0,VALID,97.1633,VALID,-0.0849042,VALID,21.1541,VALID,12,VALID,0.331641,
2004-05-22, 01:05:00,VALID,917.596,VALID,0,VALID,97.1455,VALID,-0.101885,VALID,21.1479,VALID,12,VALID,0.0220703,
2004-05-22, 01:06:00,VALID,917.629,VALID,0,VALID,97.1646,VALID,-0.0849042,VALID,21.1476,VALID,12,VALID,0.0600818,
2004-05-22, 01:07:00,VALID,917.68,VALID,0,VALID,97.1557,VALID,-0.101885,VALID,21.1638,VALID,12,VALID,0.641533,
2004-05-22, 01:08:00,VALID,917.731,VALID,0,VALID,97.1442,VALID,-0.0849042,VALID,21.1737,VALID,12,VALID,0.326527,
2004-05-22, 01:09:00,VALID,917.771,VALID,0,VALID,97.1391,VALID,-0.0509425,VALID,21.1802,VALID,14,VALID,0.632473,
2004-05-22, 01:10:00,VALID,917.808,VALID,0,VALID,97.1264,VALID,-0.0679233,VALID,21.1673,VALID,27,VALID,0.360119,
2004-05-22, 01:11:00,VALID,917.826,VALID,0,VALID,97.045,VALID,-0.0849042,VALID,21.181,VALID,13,VALID,0.470553,
2004-05-22, 01:12:00,VALID,917.834,VALID,0,VALID,96.9573,VALID,-0.0849042,VALID,21.1638,VALID,8,VALID,1.01213,
2004-05-22, 01:13:00,VALID,917.842,VALID,0,VALID,96.9649,VALID,-0.0849042,VALID,21.1409,VALID,10,VALID,0.839571,
2004-05-22, 01:14:00,VALID,917.831,VALID,0,VALID,97.0361,VALID,-0.0849042,VALID,21.1412,VALID,13,VALID,0.635099,
2004-05-22, 01:15:00,VALID,917.828,VALID,0,VALID,97.0387,VALID,-0.0849042,VALID,21.1086,VALID,13,VALID,0.84718,
2004-05-22, 01:16:00,VALID,917.818,VALID,0,VALID,97.162,VALID,-0.101885,VALID,21.0895,VALID,11,VALID,1.13463,
2004-05-22, 01:17:00,VALID,917.812,VALID,0,VALID,97.1786,VALID,-0.0679233,VALID,21.0962,VALID,18,VALID,0.958147,
2004-05-22, 01:18:00,VALID,917.804,VALID,0,VALID,97.2091,VALID,-0.101885,VALID,21.0895,VALID,16,VALID,1.21112,
2004-05-22, 01:19:00,VALID,917.776,VALID,0,VALID,97.2498,VALID,-0.0509425,VALID,21.0658,VALID,358,VALID,1.05505,
2004-05-22, 01:20:00,VALID,917.758,VALID,0,VALID,97.3464,VALID,0.0339617,VALID,21.0489,VALID,13,VALID,1.01036,
2004-05-22, 01:21:00,VALID,917.735,VALID,0,VALID,97.4431,VALID,0,VALID,21.0521,VALID,19,VALID,1.28144,
2004-05-22, 01:22:00,VALID,917.72,VALID,0,VALID,97.3629,VALID,0.0169808,VALID,21.0588,VALID,24,VALID,1.16444,
2004-05-22, 01:23:00,VALID,917.692,VALID,0,VALID,97.2447,VALID,0.0169808,VALID,21.0629,VALID,22,VALID,1.10082,
2004-05-22, 01:24:00,VALID,917.646,VALID,0,VALID,97.0705,VALID,0.0169808,VALID,21.0529,VALID,18,VALID,1.3766,
2004-05-22, 01:25:00,VALID,917.617,VALID,0,VALID,97.0883,VALID,0,VALID,21.033,VALID,16,VALID,1.42326,
2004-05-22, 01:26:00,VALID,917.583,VALID,0,VALID,97.1976,VALID,0,VALID,21.0233,VALID,17,VALID,1.33687,
2004-05-22, 01:27:00,VALID,917.529,VALID,0,VALID,97.0883,VALID,0.0169808,VALID,21.0203,VALID,346,VALID,0.623264,
2004-05-22, 01:28:00,VALID,917.486,VALID,0,VALID,97.1341,VALID,-0.0169808,VALID,21.0203,VALID,347,VALID,0.527716,
2004-05-22, 01:29:00,VALID,917.442,VALID,0,VALID,97.2282,VALID,0,VALID,20.998,VALID,352,VALID,0.443945,
2004-05-22, 01:30:00,VALID,917.405,VALID,0,VALID,97.3362,VALID,0,VALID,20.9848,VALID,351,VALID,0.695499,
2004-05-22, 01:31:00,VALID,917.358,VALID,0,VALID,97.3909,VALID,0.0169808,VALID,20.9652,VALID,348,VALID,0.465774,
2004-05-22, 01:32:00,VALID,917.321,VALID,0,VALID,97.5143,VALID,0.0169808,VALID,20.9399,VALID,20,VALID,0.375347,
2004-05-22, 01:33:00,VALID,917.298,VALID,0,VALID,97.5842,VALID,0,VALID,20.9302,VALID,20,VALID,0.19436,
2004-05-22, 01:34:00,VALID,917.263,VALID,0,VALID,97.5766,VALID,0,VALID,20.9138,VALID,20,VALID,0.546317,
2004-05-22, 01:35:00,VALID,917.231,VALID,0,VALID,97.5499,VALID,0.0169808,VALID,20.9108,VALID,20,VALID,0.581854,
2004-05-22, 01:36:00,VALID,917.205,VALID,0,VALID,97.5308,VALID,0.0169808,VALID,20.8939,VALID,15,VALID,0.691311,
2004-05-22, 01:37:00,VALID,917.18,VALID,0,VALID,97.5766,VALID,0,VALID,20.8941,VALID,15,VALID,0.604226,
2004-05-22, 01:38:00,VALID,917.169,VALID,0,VALID,97.5906,VALID,-0.0169808,VALID,20.8715,VALID,19,VALID,0.695482,
2004-05-22, 01:39:00,VALID,917.167,VALID,0,VALID,97.6707,VALID,0,VALID,20.8522,VALID,21,VALID,0.368096,
2004-05-22, 01:40:00,VALID,917.181,VALID,0,VALID,97.8169,VALID,0.0169808,VALID,20.8524,VALID,21,VALID,0.147892,
2004-05-22, 01:41:00,VALID,917.177,VALID,0,VALID,97.9174,VALID,0,VALID,20.8659,VALID,111,VALID,0.432292,
2004-05-22, 01:42:00,VALID,917.184,VALID,0,VALID,98.0763,VALID,0,VALID,20.8653,VALID,201,VALID,0.460405,
2004-05-22, 01:43:00,VALID,917.176,VALID,0,VALID,98.2238,VALID,0.0169808,VALID,20.8721,VALID,222,VALID,0.326219,
2004-05-22, 01:44:00,VALID,917.16,VALID,0,VALID,98.3103,VALID,0.0169808,VALID,20.8847,VALID,222,VALID,0.152716,
2004-05-22, 01:45:00,VALID,917.128,VALID,0,VALID,98.3675,VALID,0,VALID,20.9108,VALID,224,VALID,0.607422,
2004-05-22, 01:46:00,VALID,917.107,VALID,0,VALID,98.3955,VALID,0,VALID,20.9243,VALID,28,VALID,0.541903,
2004-05-22, 01:47:00,VALID,917.088,VALID,0,VALID,98.2315,VALID,0.0509425,VALID,20.9143,VALID,29,VALID,0.570313,
2004-05-22, 01:48:00,VALID,917.08,VALID,0,VALID,98.2022,VALID,0,VALID,20.9041,VALID,21,VALID,0.832775,
2004-05-22, 01:49:00,VALID,917.091,VALID,0,VALID,98.262,VALID,0,VALID,20.8976,VALID,30,VALID,0.705221,
2004-05-22, 01:50:00,VALID,917.091,VALID,0,VALID,98.3612,VALID,0,VALID,20.9275,VALID,20,VALID,0.929129,
2004-05-22, 01:51:00,VALID,917.108,VALID,0,VALID,98.295,VALID,0,VALID,20.9412,VALID,360,VALID,0.588118,
2004-05-22, 01:52:00,VALID,917.108,VALID,0,VALID,98.2963,VALID,0,VALID,20.9243,VALID,284,VALID,0.0872093,
2004-05-22, 01:53:00,VALID,917.103,VALID,0,VALID,98.3141,VALID,0,VALID,20.9267,VALID,302,VALID,0.101763,
2004-05-22, 01:54:00,VALID,917.115,VALID,0,VALID,98.3077,VALID,0,VALID,20.9396,VALID,14,VALID,0.852083,
2004-05-22, 01:55:00,VALID,917.13,VALID,0,VALID,98.2925,VALID,0,VALID,20.9531,VALID,39,VALID,0.735647,
2004-05-22, 01:56:00,VALID,917.146,VALID,0,VALID,98.2861,VALID,0,VALID,20.9692,VALID,20,VALID,0.701736,
2004-05-22, 01:57:00,VALID,917.161,VALID,0,VALID,98.1882,VALID,0,VALID,21.0015,VALID,21,VALID,0.94478,
2004-05-22, 01:58:00,VALID,917.174,VALID,0,VALID,98.0344,VALID,0,VALID,20.9945,VALID,5,VALID,0.736506,
2004-05-22, 01:59:00,VALID,917.201,VALID,0,VALID,97.9314,VALID,0.0169808,VALID,21.0117,VALID,29,VALID,0.809375,
2004-05-22, 02:00:00,VALID,917.22,VALID,0,VALID,97.7851,VALID,0,VALID,21.0147,VALID,15,VALID,0.631324,
2004-05-22, 02:01:00,VALID,917.217,VALID,0,VALID,97.6783,VALID,0,VALID,21.0042,VALID,15,VALID,1.50762,
2004-05-22, 02:02:00,VALID,917.203,VALID,0,VALID,97.6007,VALID,0.0169808,VALID,20.9883,VALID,20,VALID,1.47563,
2004-05-22, 02:03:00,VALID,917.195,VALID,0,VALID,97.574,VALID,0.0169808,VALID,20.995,VALID,20,VALID,1.34066,
2004-05-22, 02:04:00,VALID,917.149,VALID,0,VALID,97.5346,VALID,0,VALID,20.9888,VALID,19,VALID,1.08984,
2004-05-22, 02:05:00,VALID,917.107,VALID,0,VALID,97.5511,VALID,0,VALID,20.9883,VALID,17,VALID,1.42522,
2004-05-22, 02:06:00,VALID,917.083,VALID,0,VALID,97.5194,VALID,-0.0169808,VALID,20.9915,VALID,25,VALID,1.00852,
2004-05-22, 02:07:00,VALID,917.101,VALID,0,VALID,97.3769,VALID,-0.0339617,VALID,20.9923,VALID,33,VALID,0.675686,
2004-05-22, 02:08:00,VALID,917.108,VALID,0,VALID,97.3083,VALID,0,VALID,20.9625,VALID,17,VALID,1.33114,
2004-05-22, 02:09:00,VALID,917.133,VALID,0,VALID,97.2294,VALID,-0.0169808,VALID,20.9593,VALID,19,VALID,1.68694,
2004-05-22, 02:10:00,VALID,917.15,VALID,0,VALID,97.2002,VALID,0,VALID,20.9593,VALID,13,VALID,1.50911,
2004-05-22, 02:11:00,VALID,917.159,VALID,0,VALID,97.2638,VALID,0,VALID,20.949,VALID,21,VALID,0.737262,
2004-05-22, 02:12:00,VALID,917.174,VALID,0,VALID,97.3184,VALID,-0.0339617,VALID,20.9369,VALID,23,VALID,1.07461,
2004-05-22, 02:13:00,VALID,917.17,VALID,0,VALID,97.2638,VALID,-0.0169808,VALID,20.9202,VALID,10,VALID,1.44588,
2004-05-22, 02:14:00,VALID,917.171,VALID,0,VALID,97.2688,VALID,0,VALID,20.8952,VALID,14,VALID,1.46693,
2004-05-22, 02:15:00,VALID,917.163,VALID,0,VALID,97.1112,VALID,0,VALID,20.8688,VALID,16,VALID,1.39193,
2004-05-22, 02:16:00,VALID,917.154,VALID,0,VALID,96.8441,VALID,0,VALID,20.8497,VALID,354,VALID,0.596413,
2004-05-22, 02:17:00,VALID,917.135,VALID,0,VALID,96.4181,VALID,-0.0169808,VALID,20.8077,VALID,9,VALID,0.987424,
2004-05-22, 02:18:00,VALID,917.1,VALID,0,VALID,96.1727,VALID,-0.0169808,VALID,20.7978,VALID,359,VALID,1.5831,
2004-05-22, 02:19:00,VALID,917.072,VALID,0,VALID,95.8866,VALID,-0.0169808,VALID,20.7916,VALID,1,VALID,1.90755,
2004-05-22, 02:20:00,VALID,917.061,VALID,0,VALID,95.5852,VALID,0,VALID,20.7916,VALID,14,VALID,2.2358,
2004-05-22, 02:21:00,VALID,917.038,VALID,0,VALID,95.6221,VALID,0,VALID,20.7948,VALID,13,VALID,2.76916,
2004-05-22, 02:22:00,VALID,917.048,VALID,0,VALID,95.7709,VALID,0,VALID,20.7881,VALID,22,VALID,2.2904,
2004-05-22, 02:23:00,VALID,917.053,VALID,0,VALID,95.9476,VALID,0.0169808,VALID,20.798,VALID,20,VALID,1.53563,
2004-05-22, 02:24:00,VALID,917.034,VALID,0,VALID,96.0952,VALID,0,VALID,20.811,VALID,13,VALID,1.48619,
2004-05-22, 02:25:00,VALID,917.025,VALID,0,VALID,96.2439,VALID,0,VALID,20.8045,VALID,358,VALID,1.74085,
2004-05-22, 02:26:00,VALID,917.014,VALID,0,VALID,96.5784,VALID,0,VALID,20.7754,VALID,12,VALID,1.61961,
2004-05-22, 02:27:00,VALID,917.015,VALID,0,VALID,97.0171,VALID,0,VALID,20.7461,VALID,6,VALID,1.07273,
2004-05-22, 02:28:00,VALID,916.975,VALID,0,VALID,97.2447,VALID,0,VALID,20.7273,VALID,14,VALID,1.45408,
2004-05-22, 02:29:00,VALID,916.933,VALID,0,VALID,97.4202,VALID,0.0169808,VALID,20.7106,VALID,3,VALID,1.54501,
2004-05-22, 02:30:00,VALID,916.873,VALID,0,VALID,97.4316,VALID,0,VALID,20.6877,VALID,2,VALID,2.11133,
2004-05-22, 02:31:00,VALID,916.826,VALID,0,VALID,97.5982,VALID,-0.0169808,VALID,20.6624,VALID,5,VALID,1.84505,
2004-05-22, 02:32:00,VALID,916.791,VALID,0,VALID,97.7762,VALID,0,VALID,20.6266,VALID,11,VALID,1.8811,
2004-05-22, 02:33:00,VALID,916.768,VALID,0,VALID,97.9059,VALID,0,VALID,20.6045,VALID,354,VALID,1.33628,
2004-05-22, 02:34:00,VALID,916.764,VALID,0,VALID,97.9212,VALID,0,VALID,20.5723,VALID,359,VALID,1.85454,
2004-05-22, 02:35:00,VALID,916.783,VALID,0,VALID,98.0102,VALID,-0.0169808,VALID,20.5566,VALID,12,VALID,1.30766,
2004-05-22, 02:36:00,VALID,916.791,VALID,0,VALID,97.9962,VALID,-0.0679233,VALID,20.5308,VALID,340,VALID,2.01429,
2004-05-22, 02:37:00,VALID,916.821,VALID,0,VALID,98.089,VALID,0,VALID,20.501,VALID,360,VALID,1.70543,
2004-05-22, 02:38:00,VALID,916.845,VALID,0,VALID,98.1297,VALID,0,VALID,20.4945,VALID,4,VALID,1.62965,
2004-05-22, 02:39:00,VALID,916.854,VALID,0,VALID,97.986,VALID,-0.0339617,VALID,20.4781,VALID,354,VALID,0.978561,
2004-05-22, 02:40:00,VALID,916.855,VALID,0,VALID,98.0471,VALID,-0.0169808,VALID,20.4784,VALID,9,VALID,1.37784,
2004-05-22, 02:41:00,VALID,916.853,VALID,0,VALID,97.8525,VALID,0,VALID,20.4821,VALID,360,VALID,1.89153,
2004-05-22, 02:42:00,VALID,916.844,VALID,0,VALID,97.8614,VALID,-0.0169808,VALID,20.4694,VALID,334,VALID,2.11628,
2004-05-22, 02:43:00,VALID,916.849,VALID,0,VALID,97.9441,VALID,-0.0849042,VALID,20.4675,VALID,1,VALID,1.53163,
2004-05-22, 02:44:00,VALID,916.855,VALID,0,VALID,97.9924,VALID,-0.101885,VALID,20.4506,VALID,358,VALID,1.26618,
2004-05-22, 02:45:00,VALID,916.836,VALID,0,VALID,97.8818,VALID,-0.101885,VALID,20.4384,VALID,1,VALID,1.29403,
2004-05-22, 02:46:00,VALID,916.831,VALID,0,VALID,97.8932,VALID,-0.101885,VALID,20.425,VALID,2,VALID,1.02178,
2004-05-22, 02:47:00,VALID,916.803,VALID,0,VALID,97.8322,VALID,-0.101885,VALID,20.4183,VALID,350,VALID,0.953835,
2004-05-22, 02:48:00,VALID,916.789,VALID,0,VALID,97.5906,VALID,-0.118866,VALID,20.4129,VALID,312,VALID,0.838299,
2004-05-22, 02:49:00,VALID,916.773,VALID,0,VALID,97.56,VALID,-0.0509425,VALID,20.4019,VALID,1,VALID,1.03051,
2004-05-22, 02:50:00,VALID,916.751,VALID,0,VALID,97.4952,VALID,0,VALID,20.4076,VALID,2,VALID,1.19295,
2004-05-22, 02:51:00,VALID,916.742,VALID,0,VALID,97.4965,VALID,0,VALID,20.4148,VALID,11,VALID,1.02071,
2004-05-22, 02:52:00,VALID,916.748,VALID,0,VALID,97.2676,VALID,0,VALID,20.3984,VALID,9,VALID,1.93169,
2004-05-22, 02:53:00,VALID,916.744,VALID,0,VALID,97.0145,VALID,-0.0169808,VALID,20.3852,VALID,16,VALID,1.54743,
2004-05-22, 02:54:00,VALID,916.761,VALID,0,VALID,97.0082,VALID,-0.0169808,VALID,20.3949,VALID,13,VALID,1.32347,
2004-05-22, 02:55:00,VALID,916.759,VALID,0,VALID,96.9281,VALID,-0.0169808,VALID,20.3847,VALID,9,VALID,1.09337,
2004-05-22, 02:56:00,VALID,916.737,VALID,0,VALID,96.956,VALID,0,VALID,20.3656,VALID,348,VALID,1.38063,
2004-05-22, 02:57:00,VALID,916.732,VALID,0,VALID,97.0539,VALID,0,VALID,20.3554,VALID,357,VALID,1.27671,
2004-05-22, 02:58:00,VALID,916.732,VALID,0,VALID,97.1226,VALID,0,VALID,20.3427,VALID,4,VALID,1.16282,
2004-05-22, 02:59:00,VALID,916.737,VALID,0,VALID,97.1137,VALID,0,VALID,20.3467,VALID,354,VALID,1.06938,
2004-05-22, 03:00:00,VALID,916.739,VALID,0,VALID,97.1023,VALID,-0.0169808,VALID,20.344,VALID,357,VALID,1.11097,
2004-05-22, 03:01:00,VALID,916.758,VALID,0,VALID,97.2027,VALID,0,VALID,20.3338,VALID,6,VALID,1.26493,
2004-05-22, 03:02:00,VALID,916.785,VALID,0,VALID,97.045,VALID,0,VALID,20.3115,VALID,14,VALID,1.15767,
2004-05-22, 03:03:00,VALID,916.793,VALID,0,VALID,97.0031,VALID,-0.0169808,VALID,20.3082,VALID,7,VALID,1.02437,
2004-05-22, 03:04:00,VALID,916.828,VALID,0,VALID,96.9611,VALID,-0.0169808,VALID,20.2943,VALID,7,VALID,0.955788,
2004-05-22, 03:05:00,VALID,916.867,VALID,0,VALID,96.97,VALID,0,VALID,20.3112,VALID,25,VALID,0.938542,
2004-05-22, 03:06:00,VALID,916.89,VALID,0,VALID,96.8632,VALID,-0.0339617,VALID,20.311,VALID,14,VALID,1.02557,
2004-05-22, 03:07:00,VALID,916.932,VALID,0,VALID,96.6534,VALID,-0.0339617,VALID,20.3018,VALID,21,VALID,0.902166,
2004-05-22, 03:08:00,VALID,916.944,VALID,0,VALID,96.6076,VALID,-0.0169808,VALID,20.3144,VALID,22,VALID,0.672238,
2004-05-22, 03:09:00,VALID,916.958,VALID,0,VALID,96.5135,VALID,-0.0169808,VALID,20.3341,VALID,30,VALID,0.607701,
2004-05-22, 03:10:00,VALID,916.974,VALID,0,VALID,96.3596,VALID,-0.0679233,VALID,20.344,VALID,30,VALID,0.614281,
2004-05-22, 03:11:00,VALID,916.988,VALID,0,VALID,96.291,VALID,-0.0169808,VALID,20.3567,VALID,29,VALID,0.514063,
2004-05-22, 03:12:00,VALID,916.971,VALID,0,VALID,96.1715,VALID,-0.0339617,VALID,20.3596,VALID,47,VALID,0.803779,
2004-05-22, 03:13:00,VALID,916.958,VALID,0,VALID,95.9146,VALID,0,VALID,20.3728,VALID,30,VALID,0.666243,
2004-05-22, 03:14:00,VALID,916.948,VALID,0,VALID,95.7137,VALID,0,VALID,20.3761,VALID,17,VALID,0.0738636,
2004-05-22, 03:15:00,VALID,916.931,VALID,0,VALID,95.5967,VALID,-0.0169808,VALID,20.3755,VALID,17,VALID,0,
2004-05-22, 03:16:00,VALID,916.913,VALID,0,VALID,95.57,VALID,0.0169808,VALID,20.379,VALID,17,VALID,0,
2004-05-22, 03:17:00,VALID,916.895,VALID,0,VALID,95.6514,VALID,-0.0169808,VALID,20.3857,VALID,17,VALID,0.0288881,
2004-05-22, 03:18:00,VALID,916.875,VALID,0,VALID,95.6221,VALID,-0.0509425,VALID,20.379,VALID,17,VALID,0.115327,
2004-05-22, 03:19:00,VALID,916.857,VALID,0,VALID,95.6755,VALID,-0.0169808,VALID,20.3855,VALID,17,VALID,0.00106534,
2004-05-22, 03:20:00,VALID,916.841,VALID,0,VALID,95.7035,VALID,-0.0339617,VALID,20.3925,VALID,17,VALID,0.0720881,
2004-05-22, 03:21:00,VALID,916.831,VALID,0,VALID,95.6158,VALID,0,VALID,20.3828,VALID,17,VALID,0.29306,
2004-05-22, 03:22:00,VALID,916.821,VALID,0,VALID,95.7429,VALID,-0.0339617,VALID,20.3731,VALID,26,VALID,0.773438,
2004-05-22, 03:23:00,VALID,916.802,VALID,0,VALID,95.8701,VALID,-0.0339617,VALID,20.3408,VALID,27,VALID,0.69931,
2004-05-22, 03:24:00,VALID,916.79,VALID,0,VALID,96.071,VALID,-0.0509425,VALID,20.302,VALID,27,VALID,0.612942,
2004-05-22, 03:25:00,VALID,916.781,VALID,0,VALID,96.1193,VALID,0,VALID,20.273,VALID,27,VALID,0.707986,
2004-05-22, 03:26:00,VALID,916.761,VALID,0,VALID,95.9273,VALID,0,VALID,20.2566,VALID,28,VALID,0.555398,
2004-05-22, 03:27:00,VALID,916.751,VALID,0,VALID,95.9362,VALID,-0.0169808,VALID,20.2305,VALID,28,VALID,0.283008,
2004-05-22, 03:28:00,VALID,916.72,VALID,0,VALID,95.8307,VALID,0,VALID,20.224,VALID,15,VALID,0.445694,
2004-05-22, 03:29:00,VALID,916.697,VALID,0,VALID,95.6692,VALID,-0.0169808,VALID,20.2211,VALID,351,VALID,0.606712,
2004-05-22, 03:30:00,VALID,916.662,VALID,0,VALID,95.5814,VALID,0,VALID,20.2181,VALID,349,VALID,0.592014,
2004-05-22, 03:31:00,VALID,916.626,VALID,0,VALID,95.4644,VALID,-0.0169808,VALID,20.228,VALID,348,VALID,0.25,
2004-05-22, 03:32:00,VALID,916.616,VALID,0,VALID,95.3258,VALID,0,VALID,20.231,VALID,344,VALID,0.32279,
2004-05-22, 03:33:00,VALID,916.62,VALID,0,VALID,95.1186,VALID,-0.0169808,VALID,20.2727,VALID,340,VALID,0.110937,
2004-05-22, 03:34:00,VALID,916.638,VALID,0,VALID,94.9176,VALID,0,VALID,20.3117,VALID,340,VALID,0.178757,
2004-05-22, 03:35:00,VALID,916.654,VALID,0,VALID,94.7078,VALID,0,VALID,20.2951,VALID,340,VALID,0.289063,
2004-05-22, 03:36:00,VALID,916.654,VALID,0,VALID,94.924,VALID,0,VALID,20.305,VALID,340,VALID,0.191584,